Location: Castellare
(42.4669°N, 9.4728°E)
Time: 04:37:27
(UTC+00:00)

Cosmos 407 Rocket - Pass Details

Date: 17 February 2020
Orbit: 745 x 785 km, 74.0° (Epoch: 29 March)

Event Time Altitude Azimuth Distance (km) Brightness Sun altitude
Rises 04:43:59 0° 196° (SSW) 3,260 6.6 -17.8°
Reaches altitude 10° 04:46:22 10° 195° (SSW) 2,333 5.9 -17.3°
Maximum altitude 04:51:41 84° 108° (ESE) 791 3.6 -16.3°
Drops below altitude 10° 04:57:00 10° 21° (NNE) 2,331 6.2 -15.4°
Sets 04:59:23 0° 21° (NNE) 3,257 7.0 -14.9°
